Time,TemperatureF,DewpointF,PressureIn,WindDirection,WindDirectionDegrees,WindSpeedMPH,WindSpeedGustMPH,Humidity,HourlyPrecipIn,Conditions,Clouds,dailyrainin,SoftwareType,DateUTC
2013-07-22 00:02:00,73.0,72.0,29.87,SSW,204,5.0,-999.0,94,-99.99,,,-99.99,,2013-07-22 05:02:00,
2013-07-22 00:11:00,72.0,72.0,29.87,ESE,114,5.0,-999.0,100,-99.99,,,-99.99,,2013-07-22 05:11:00,
2013-07-22 00:22:00,72.0,72.0,29.87,North,0,0.0,-999.0,100,-99.99,,,-99.99,,2013-07-22 05:22:00,
2013-07-22 00:32:00,72.0,72.0,29.86,North,0,0.0,-999.0,100,-99.99,,,-99.99,,2013-07-22 05:32:00,
2013-07-22 00:42:00,72.0,72.0,29.87,SW,225,3.0,-999.0,100,-99.99,,,-99.99,,2013-07-22 05:42:00,
2013-07-22 00:52:00,72.0,72.0,29.85,North,0,0.0,-999.0,100,-99.99,,,-99.99,,2013-07-22 05:52:00,
2013-07-22 01:01:00,72.0,72.0,29.85,North,0,0.0,-999.0,100,-99.99,,,-99.99,,2013-07-22 06:01:00,
2013-07-22 01:11:00,72.0,72.0,29.83,North,0,0.0,-999.0,100,-99.99,,,-99.99,,2013-07-22 06:11:00,
2013-07-22 01:22:00,72.0,72.0,29.83,SSW,204,5.0,-999.0,100,-99.99,,,-99.99,,2013-07-22 06:22:00,
2013-07-22 01:32:00,70.0,70.0,29.82,SSE,154,7.0,-999.0,100,-99.99,,,-99.99,,2013-07-22 06:32:00,
2013-07-22 01:43:00,72.0,72.0,29.83,WSW,250,6.0,-999.0,100,-99.99,,,-99.99,,2013-07-22 06:43:00,
2013-07-22 01:52:00,72.0,72.0,29.83,SSW,204,5.0,-999.0,100,-99.99,,,-99.99,,2013-07-22 06:52:00,
2013-07-22 02:01:00,72.0,72.0,29.83,North,0,0.0,-999.0,100,-99.99,,,-99.99,,2013-07-22 07:01:00,
2013-07-22 02:11:00,70.0,70.0,29.83,North,0,0.0,-999.0,100,-99.99,,,-99.99,,2013-07-22 07:11:00,
2013-07-22 02:22:00,70.0,70.0,29.84,North,0,0.0,-999.0,100,-99.99,,,-99.99,,2013-07-22 07:22:00,
2013-07-22 02:33:00,70.0,70.0,29.83,North,0,0.0,-999.0,100,-99.99,,,-99.99,,2013-07-22 07:33:00,
2013-07-22 02:43:00,70.0,70.0,29.83,North,0,0.0,-999.0,100,-99.99,,,-99.99,,2013-07-22 07:43:00,
2013-07-22 02:52:00,70.0,70.0,29.83,North,0,3.0,-999.0,100,-99.99,,,-99.99,,2013-07-22 07:52:00,
2013-07-22 03:01:00,70.0,70.0,29.83,North,0,6.0,-999.0,100,-99.99,,,-99.99,,2013-07-22 08:01:00,
2013-07-22 03:11:00,70.0,70.0,29.83,North,0,0.0,-999.0,100,-99.99,,,-99.99,,2013-07-22 08:11:00,
2013-07-22 03:22:00,70.0,70.0,29.83,North,0,0.0,-999.0,100,-99.99,,,-99.99,,2013-07-22 08:22:00,
2013-07-22 03:32:00,70.0,68.0,29.83,North,0,0.0,-999.0,94,-99.99,,,-99.99,,2013-07-22 08:32:00,
2013-07-22 03:43:00,70.0,68.0,29.83,North,0,0.0,-999.0,94,-99.99,,,-99.99,,2013-07-22 08:43:00,
2013-07-22 03:52:00,68.0,68.0,29.83,North,0,0.0,-999.0,100,-99.99,,,-99.99,,2013-07-22 08:52:00,
2013-07-22 04:02:00,68.0,68.0,29.83,North,0,0.0,-999.0,100,-99.99,,,-99.99,,2013-07-22 09:02:00,
2013-07-22 04:11:00,68.0,68.0,29.83,North,0,0.0,-999.0,100,-99.99,,,-99.99,,2013-07-22 09:11:00,
2013-07-22 04:22:00,68.0,68.0,29.82,North,0,0.0,-999.0,100,-99.99,,,-99.99,,2013-07-22 09:22:00,
2013-07-22 04:33:00,66.0,66.0,29.82,North,0,0.0,-999.0,100,-99.99,,,-99.99,,2013-07-22 09:33:00,
2013-07-22 04:42:00,68.0,68.0,29.81,North,0,0.0,-999.0,100,-99.99,,,-99.99,,2013-07-22 09:42:00,
2013-07-22 04:52:00,66.0,66.0,29.81,SSW,205,3.0,-999.0,100,-99.99,,,-99.99,,2013-07-22 09:52:00,
2013-07-22 05:01:00,66.0,66.0,29.81,North,0,0.0,-999.0,100,-99.99,,,-99.99,,2013-07-22 10:01:00,
2013-07-22 05:11:00,66.0,66.0,29.80,North,0,0.0,-999.0,100,-99.99,,,-99.99,,2013-07-22 10:11:00,
2013-07-22 05:22:00,66.0,66.0,29.80,North,0,0.0,-999.0,100,-99.99,,,-99.99,,2013-07-22 10:22:00,
2013-07-22 05:32:00,66.0,66.0,29.80,North,0,0.0,-999.0,100,-99.99,,,-99.99,,2013-07-22 10:32:00,
2013-07-22 05:43:00,66.0,66.0,29.80,North,0,0.0,-999.0,100,-99.99,,,-99.99,,2013-07-22 10:43:00,
2013-07-22 05:52:00,66.0,66.0,29.80,North,0,0.0,-999.0,100,-99.99,,,-99.99,,2013-07-22 10:52:00,
2013-07-22 06:01:00,66.0,66.0,29.80,North,0,0.0,-999.0,100,-99.99,,,-99.99,,2013-07-22 11:01:00,
2013-07-22 06:11:00,66.0,66.0,29.80,North,0,0.0,-999.0,100,-99.99,,,-99.99,,2013-07-22 11:11:00,
2013-07-22 06:22:00,66.0,66.0,29.80,North,0,0.0,-999.0,100,-99.99,,,-99.99,,2013-07-22 11:22:00,
2013-07-22 06:32:00,66.0,66.0,29.80,North,0,0.0,-999.0,100,-99.99,,,-99.99,,2013-07-22 11:32:00,
2013-07-22 06:43:00,66.0,66.0,29.79,SSE,154,3.0,-999.0,100,-99.99,,,-99.99,,2013-07-22 11:43:00,
2013-07-22 06:52:00,66.0,66.0,29.80,SSW,205,3.0,-999.0,100,-99.99,,,-99.99,,2013-07-22 11:52:00,
2013-07-22 07:02:00,66.0,66.0,29.79,North,0,8.0,-999.0,100,-99.99,,,-99.99,,2013-07-22 12:02:00,
2013-07-22 07:11:00,66.0,66.0,29.79,North,0,7.0,-999.0,100,-99.99,,,-99.99,,2013-07-22 12:11:00,
2013-07-22 07:22:00,66.0,66.0,29.80,North,0,0.0,-999.0,100,-99.99,,,-99.99,,2013-07-22 12:22:00,
2013-07-22 07:32:00,66.0,66.0,29.81,North,0,0.0,-999.0,100,-99.99,,,-99.99,,2013-07-22 12:32:00,
2013-07-22 07:43:00,66.0,66.0,29.86,NNW,334,3.0,-999.0,100,-99.99,,,-99.99,,2013-07-22 12:43:00,
2013-07-22 07:53:00,68.0,68.0,29.87,North,0,6.0,-999.0,100,-99.99,,,-99.99,,2013-07-22 12:53:00,
2013-07-22 08:01:00,70.0,68.0,29.85,North,0,0.0,-999.0,94,-99.99,,,-99.99,,2013-07-22 13:01:00,
2013-07-22 08:11:00,70.0,68.0,29.85,North,0,0.0,-999.0,94,-99.99,,,-99.99,,2013-07-22 13:11:00,
2013-07-22 08:22:00,70.0,68.0,29.84,North,0,0.0,-999.0,94,-99.99,,,-99.99,,2013-07-22 13:22:00,
2013-07-22 08:32:00,70.0,70.0,29.83,North,0,0.0,-999.0,100,-99.99,,,-99.99,,2013-07-22 13:32:00,
2013-07-22 08:43:00,70.0,70.0,29.83,North,0,0.0,-999.0,100,-99.99,,,-99.99,,2013-07-22 13:43:00,
2013-07-22 08:53:00,70.0,70.0,29.83,East,90,7.0,-999.0,100,-99.99,,,-99.99,,2013-07-22 13:53:00,
2013-07-22 09:01:00,70.0,70.0,29.83,North,0,0.0,-999.0,100,-99.99,,,-99.99,,2013-07-22 14:01:00,
2013-07-22 09:11:00,70.0,70.0,29.83,North,0,0.0,-999.0,100,-99.99,,,-99.99,,2013-07-22 14:11:00,
2013-07-22 09:22:00,72.0,72.0,29.83,North,0,0.0,-999.0,100,-99.99,,,-99.99,,2013-07-22 14:22:00,
2013-07-22 09:32:00,72.0,72.0,29.83,SE,135,5.0,-999.0,100,-99.99,,,-99.99,,2013-07-22 14:32:00,
2013-07-22 09:43:00,72.0,72.0,29.83,SSW,204,9.0,-999.0,100,-99.99,,,-99.99,,2013-07-22 14:43:00,
2013-07-22 10:01:00,73.0,72.0,29.83,North,0,9.0,-999.0,94,-99.99,,,-99.99,,2013-07-22 15:01:00,
2013-07-22 10:11:00,73.0,73.0,29.83,SW,225,5.0,-999.0,100,-99.99,,,-99.99,,2013-07-22 15:11:00,
2013-07-22 10:22:00,75.0,73.0,29.84,SW,225,6.0,-999.0,94,-99.99,,,-99.99,,2013-07-22 15:22:00,
2013-07-22 10:33:00,75.0,73.0,29.83,SW,225,6.0,-999.0,94,-99.99,,,-99.99,,2013-07-22 15:33:00,
2013-07-22 10:42:00,77.0,75.0,29.83,SSW,205,3.0,-999.0,94,-99.99,,,-99.99,,2013-07-22 15:42:00,
2013-07-22 10:52:00,77.0,73.0,29.83,North,0,5.0,-999.0,88,-99.99,,,-99.99,,2013-07-22 15:52:00,
2013-07-22 11:01:00,79.0,75.0,29.83,North,0,8.0,-999.0,88,-99.99,,,-99.99,,2013-07-22 16:01:00,
2013-07-22 11:11:00,79.0,73.0,29.83,SSW,205,12.0,-999.0,83,-99.99,,,-99.99,,2013-07-22 16:11:00,
2013-07-22 11:32:00,81.0,73.0,29.83,NNE,25,3.0,-999.0,78,-99.99,,,-99.99,,2013-07-22 16:32:00,
2013-07-22 11:43:00,82.0,73.0,29.83,SE,135,5.0,-999.0,74,-99.99,,,-99.99,,2013-07-22 16:43:00,
2013-07-22 11:52:00,82.0,73.0,29.83,North,0,0.0,-999.0,74,-99.99,,,-99.99,,2013-07-22 16:52:00,
2013-07-22 12:01:00,82.0,73.0,29.83,NNE,25,3.0,-999.0,74,-99.99,,,-99.99,,2013-07-22 17:01:00,
2013-07-22 12:11:00,82.0,73.0,29.84,WNW,294,5.0,-999.0,74,-99.99,,,-99.99,,2013-07-22 17:11:00,
2013-07-22 12:23:00,82.0,72.0,29.84,North,0,3.0,-999.0,69,-99.99,,,-99.99,,2013-07-22 17:23:00,
2013-07-22 12:32:00,81.0,73.0,29.84,West,269,6.0,-999.0,78,-99.99,,,-99.99,,2013-07-22 17:32:00,
2013-07-22 12:43:00,81.0,73.0,29.84,West,269,5.0,-999.0,78,-99.99,,,-99.99,,2013-07-22 17:43:00,
2013-07-22 12:52:00,81.0,73.0,29.84,West,269,5.0,-999.0,78,-99.99,,,-99.99,,2013-07-22 17:52:00,
2013-07-22 13:04:00,81.0,73.0,29.84,NW,315,3.0,-999.0,78,-99.99,,,-99.99,,2013-07-22 18:04:00,
2013-07-22 13:13:00,81.0,73.0,29.84,WNW,295,13.0,-999.0,78,-99.99,,,-99.99,,2013-07-22 18:13:00,
2013-07-22 13:33:00,82.0,73.0,29.85,West,269,5.0,-999.0,74,-99.99,,,-99.99,,2013-07-22 18:33:00,
2013-07-22 13:47:00,82.0,73.0,29.85,WNW,295,8.0,-999.0,74,-99.99,,,-99.99,,2013-07-22 18:47:00,
2013-07-22 14:04:00,82.0,72.0,29.84,WNW,294,6.0,-999.0,69,-99.99,,,-99.99,,2013-07-22 19:04:00,
2013-07-22 14:22:00,82.0,72.0,29.84,WNW,295,7.0,-999.0,69,-99.99,,,-99.99,,2013-07-22 19:22:00,
2013-07-22 14:43:00,82.0,70.0,29.85,NW,315,3.0,-999.0,65,-99.99,,,-99.99,,2013-07-22 19:43:00,
2013-07-22 14:53:00,82.0,70.0,29.85,WNW,294,6.0,-999.0,65,-99.99,,,-99.99,,2013-07-22 19:53:00,
2013-07-22 15:03:00,82.0,68.0,29.85,NNW,334,7.0,-999.0,61,-99.99,,,-99.99,,2013-07-22 20:03:00,
2013-07-22 15:14:00,82.0,70.0,29.85,NNW,334,7.0,-999.0,65,-99.99,,,-99.99,,2013-07-22 20:14:00,
2013-07-22 15:22:00,82.0,70.0,29.86,NW,315,8.0,-999.0,65,-99.99,,,-99.99,,2013-07-22 20:22:00,
2013-07-22 15:32:00,82.0,70.0,29.86,West,269,8.0,-999.0,65,-99.99,,,-99.99,,2013-07-22 20:32:00,
2013-07-22 15:43:00,82.0,68.0,29.86,WNW,295,12.0,-999.0,61,-99.99,,,-99.99,,2013-07-22 20:43:00,
2013-07-22 15:52:00,82.0,70.0,29.86,NW,315,6.0,-999.0,65,-99.99,,,-99.99,,2013-07-22 20:52:00,
2013-07-22 16:01:00,82.0,68.0,29.86,West,269,5.0,-999.0,61,-99.99,,,-99.99,,2013-07-22 21:01:00,
2013-07-22 16:11:00,82.0,66.0,29.87,WNW,295,8.0,-999.0,58,-99.99,,,-99.99,,2013-07-22 21:11:00,
2013-07-22 16:22:00,82.0,66.0,29.87,WNW,294,6.0,-999.0,58,-99.99,,,-99.99,,2013-07-22 21:22:00,
2013-07-22 16:32:00,82.0,66.0,29.86,NW,315,10.0,-999.0,58,-99.99,,,-99.99,,2013-07-22 21:32:00,
2013-07-22 16:43:00,82.0,66.0,29.87,WNW,295,12.0,-999.0,58,-99.99,,,-99.99,,2013-07-22 21:43:00,
2013-07-22 16:52:00,81.0,66.0,29.87,NW,315,13.0,-999.0,61,-99.99,,,-99.99,,2013-07-22 21:52:00,
2013-07-22 17:01:00,82.0,66.0,29.87,NNW,334,7.0,-999.0,58,-99.99,,,-99.99,,2013-07-22 22:01:00,
2013-07-22 17:11:00,82.0,66.0,29.87,NW,315,15.0,-999.0,58,-99.99,,,-99.99,,2013-07-22 22:11:00,
2013-07-22 17:22:00,81.0,66.0,29.87,NW,315,5.0,-999.0,61,-99.99,,,-99.99,,2013-07-22 22:22:00,
2013-07-22 17:32:00,81.0,66.0,29.87,NW,315,5.0,-999.0,61,-99.99,,,-99.99,,2013-07-22 22:32:00,
2013-07-22 17:43:00,81.0,64.0,29.87,WNW,295,8.0,-999.0,57,-99.99,,,-99.99,,2013-07-22 22:43:00,
2013-07-22 17:52:00,81.0,64.0,29.87,North,0,0.0,-999.0,57,-99.99,,,-99.99,,2013-07-22 22:52:00,
2013-07-22 18:01:00,81.0,64.0,29.87,NW,315,8.0,-999.0,57,-99.99,,,-99.99,,2013-07-22 23:01:00,
2013-07-22 18:11:00,81.0,64.0,29.87,NW,315,7.0,-999.0,57,-99.99,,,-99.99,,2013-07-22 23:11:00,
2013-07-22 18:22:00,81.0,66.0,29.87,NW,315,12.0,-999.0,61,-99.99,,,-99.99,,2013-07-22 23:22:00,
2013-07-22 18:32:00,81.0,66.0,29.87,WNW,295,3.0,-999.0,61,-99.99,,,-99.99,,2013-07-22 23:32:00,
2013-07-22 18:42:00,81.0,66.0,29.87,NW,315,12.0,-999.0,61,-99.99,,,-99.99,,2013-07-22 23:42:00,
2013-07-22 18:52:00,79.0,66.0,29.88,NW,315,10.0,-999.0,65,-99.99,,,-99.99,,2013-07-22 23:52:00,
2013-07-22 19:01:00,79.0,64.0,29.88,NNW,335,9.0,-999.0,61,-99.99,,,-99.99,,2013-07-23 00:01:00,
2013-07-22 19:11:00,79.0,64.0,29.88,NW,315,12.0,-999.0,61,-99.99,,,-99.99,,2013-07-23 00:11:00,
2013-07-22 19:22:00,79.0,64.0,29.88,North,0,5.0,-999.0,61,-99.99,,,-99.99,,2013-07-23 00:22:00,
2013-07-22 19:32:00,79.0,64.0,29.88,NW,315,7.0,-999.0,61,-99.99,,,-99.99,,2013-07-23 00:32:00,
2013-07-22 19:43:00,79.0,64.0,29.88,WNW,295,8.0,-999.0,61,-99.99,,,-99.99,,2013-07-23 00:43:00,
2013-07-22 19:52:00,77.0,64.0,29.89,WNW,294,6.0,-999.0,65,-99.99,,,-99.99,,2013-07-23 00:52:00,
2013-07-22 20:01:00,77.0,64.0,29.89,WNW,294,6.0,-999.0,65,-99.99,,,-99.99,,2013-07-23 01:01:00,
2013-07-22 20:11:00,77.0,66.0,29.89,NW,315,9.0,-999.0,69,-99.99,,,-99.99,,2013-07-23 01:11:00,
2013-07-22 20:22:00,75.0,66.0,29.89,NW,315,9.0,-999.0,73,-99.99,,,-99.99,,2013-07-23 01:22:00,
2013-07-22 20:32:00,75.0,66.0,29.90,NW,315,6.0,-999.0,73,-99.99,,,-99.99,,2013-07-23 01:32:00,
2013-07-22 20:43:00,75.0,64.0,29.90,North,0,0.0,-999.0,69,-99.99,,,-99.99,,2013-07-23 01:43:00,
2013-07-22 20:53:00,73.0,64.0,29.90,NW,315,5.0,-999.0,73,-99.99,,,-99.99,,2013-07-23 01:53:00,
2013-07-22 21:01:00,73.0,64.0,29.90,NNW,334,3.0,-999.0,73,-99.99,,,-99.99,,2013-07-23 02:01:00,
2013-07-22 21:11:00,72.0,64.0,29.90,NNW,334,3.0,-999.0,78,-99.99,,,-99.99,,2013-07-23 02:11:00,
2013-07-22 21:22:00,72.0,66.0,29.91,North,0,3.0,-999.0,83,-99.99,,,-99.99,,2013-07-23 02:22:00,
2013-07-22 21:33:00,72.0,66.0,29.92,North,0,3.0,-999.0,83,-99.99,,,-99.99,,2013-07-23 02:33:00,
2013-07-22 21:43:00,70.0,66.0,29.92,NE,45,3.0,-999.0,88,-99.99,,,-99.99,,2013-07-23 02:43:00,
2013-07-22 21:52:00,70.0,66.0,29.93,NNE,25,3.0,-999.0,88,-99.99,,,-99.99,,2013-07-23 02:52:00,
2013-07-22 22:01:00,70.0,66.0,29.94,North,0,0.0,-999.0,88,-99.99,,,-99.99,,2013-07-23 03:01:00,
2013-07-22 22:11:00,70.0,66.0,29.94,North,0,3.0,-999.0,88,-99.99,,,-99.99,,2013-07-23 03:11:00,
2013-07-22 22:22:00,68.0,64.0,29.95,North,0,0.0,-999.0,88,-99.99,,,-99.99,,2013-07-23 03:22:00,
2013-07-22 22:33:00,68.0,64.0,29.95,ENE,69,3.0,-999.0,88,-99.99,,,-99.99,,2013-07-23 03:33:00,
2013-07-22 22:43:00,66.0,64.0,29.96,NNE,25,3.0,-999.0,93,-99.99,,,-99.99,,2013-07-23 03:43:00,
2013-07-22 22:52:00,66.0,64.0,29.97,NNW,334,8.0,-999.0,93,-99.99,,,-99.99,,2013-07-23 03:52:00,
2013-07-22 23:01:00,66.0,64.0,29.98,NNE,25,3.0,-999.0,93,-99.99,,,-99.99,,2013-07-23 04:01:00,
2013-07-22 23:11:00,66.0,63.0,29.98,NNE,25,7.0,-999.0,88,-99.99,,,-99.99,,2013-07-23 04:11:00,
2013-07-22 23:21:00,66.0,64.0,29.97,NE,45,3.0,-999.0,93,-99.99,,,-99.99,,2013-07-23 04:21:00,
2013-07-22 23:32:00,64.0,63.0,29.97,NE,45,3.0,-999.0,93,-99.99,,,-99.99,,2013-07-23 04:32:00,
2013-07-22 23:42:00,64.0,63.0,29.98,North,0,0.0,-999.0,93,-99.99,,,-99.99,,2013-07-23 04:42:00,
2013-07-22 23:53:00,64.0,63.0,29.98,North,0,0.0,-999.0,93,-99.99,,,-99.99,,2013-07-23 04:53:00,